Location: Forst
(46.9333°N, 15.4333°E)
Time: 22:56:32
(UTC+00:00)

Lacrosse 5 rocket - Pass Details

Date: 23 April 2021
Orbit: 460 x 634 km, 57.0° (Epoch: 11 May)

Event Time Altitude Azimuth Distance (km) Brightness Sun altitude
Rises 20:36:37 0° 308° (NW) 2,758 6.2 -22.5°
Reaches altitude 10° 20:38:55 10° 316° (NW) 1,890 5.2 -22.8°
Maximum altitude 20:43:00 40° 27° (NNE) 890 2.5 -23.2°
Enters shadow 20:43:59 35° 59° (ENE) 985 2.5 -23.3°
